Location: Baumgartsau
(48.4586°N, 14.0864°E)
Time: 23:50:35
(UTC+00:00)

BREEZE M DEB (TANK) - Pass Details

Date: 09 April 2020
Orbit: 313 x 13666 km, 49.6° (Epoch: 30 May)

Event Time Altitude Azimuth Distance (km) Brightness Sun altitude
Rises 20:43:14 0° 263° (W) 4,798 8.0 -25.5°
Reaches altitude 10° 20:47:43 10° 265° (W) 2,664 6.7 -26.0°
Enters shadow 20:51:27 38° 273° (W) 852 4.0 -26.4°
